Location: Lussas
(44.6119°N, 4.4726°E)
Time: 20:55:46
(UTC+00:00)

ALOS - Pass Details

Date: 26 November 2020
Orbit: 682 x 686 km, 97.9° (Epoch: 27 January)

Event Time Altitude Azimuth Distance (km) Brightness Sun altitude
Rises 03:34:18 0° 22° (NNE) 3,063 5.9 -34.9°
Reaches altitude 10° 03:36:47 10° 33° (NNE) 2,142 5.2 -34.4°
Enters shadow 03:40:32 31° 85° (E) 1,202 4.0 -33.8°
Exits shadow 03:47:07 - 168° (SSE) 2,873 5.6 -32.6°
Sets 03:47:33 0° 169° (S) 3,036 5.7 -32.5°
